This is the latest recevied weather packets stored in our database for station/object K5FEP. If no packets are shown the sender has not sent any weather packets the latest 10 day(s).
| Time | Temp. | Humidity | Pressure | Rain* | Wind** | Luminosity | Snow |
|---|---|---|---|---|---|---|---|
| 1777569847 | 21.11° C | 44% | 1009 hPa | 0 mm | - | 969 W/m² | - |
| 1777569543 | 21.11° C | 42% | 1009.1 hPa | 0 mm | - | 1018 W/m² | - |
| 1777569239 | 21.11° C | 44% | 1009.2 hPa | 0 mm | - | 1008 W/m² | - |
| 1777568936 | 20.56° C | 45% | 1009.1 hPa | 0 mm | - | 1026 W/m² | - |
| 1777568632 | 20.56° C | 45% | 1009.4 hPa | 0 mm | - | 983 W/m² | - |
| 1777568330 | 20.56° C | 47% | 1009.4 hPa | 0 mm | - | 979 W/m² | - |
| 1777568026 | 20.56° C | 46% | 1009.5 hPa | 0 mm | - | 983 W/m² | - |
| 1777567723 | 20° C | 47% | 1009.5 hPa | 0 mm | - | 967 W/m² | - |
| 1777567420 | 20° C | 48% | 1009.6 hPa | 0 mm | - | 975 W/m² | - |
| 1777567118 | 20° C | 49% | 1009.6 hPa | 0 mm | - | 966 W/m² | - |
| 1777566815 | 20° C | 48% | 1009.8 hPa | 0 mm | - | 968 W/m² | - |
| 1777566513 | 20° C | 49% | 1009.5 hPa | 0 mm | - | 960 W/m² | - |
| 1777566210 | 20.56° C | 50% | 1009.6 hPa | 0 mm | - | 956 W/m² | - |
| 1777565907 | 20° C | 50% | 1009.8 hPa | 0 mm | - | 948 W/m² | - |
| 1777565602 | 20° C | 51% | 1009.7 hPa | 0 mm | - | 944 W/m² | - |
| 1777565300 | 19.44° C | 55% | 1009.6 hPa | 0 mm | - | 937 W/m² | - |
| 1777564995 | 19.44° C | 52% | 1009.9 hPa | 0 mm | - | 928 W/m² | - |
| 1777564691 | 19.44° C | 54% | 1009.9 hPa | 0 mm | - | 923 W/m² | - |
| 1777564386 | 19.44° C | 54% | 1009.8 hPa | 0 mm | - | 902 W/m² | - |
| 1777564082 | 18.89° C | 61% | 1010 hPa | 0 mm | - | 902 W/m² | - |
| 1777563779 | 18.89° C | 60% | 1009.9 hPa | 0 mm | - | 736 W/m² | - |
| 1777563475 | 18.89° C | 58% | 1009.9 hPa | 0 mm | - | 807 W/m² | - |
| 1777563174 | 18.33° C | 67% | 1010 hPa | 0 mm | - | 767 W/m² | - |
| 1777562871 | 17.78° C | 66% | 1010.2 hPa | 0 mm | - | 767 W/m² | - |
| 1777562568 | 17.22° C | 68% | 1010.3 hPa | 0 mm | - | 768 W/m² | - |
* Rain latest hour (hover to see other rain measurements)
** Current wind speed in m/s (hover to see current wind gust speed)